User: anonymous   Login
Location: Newark
(44.1667°N, 8.2500°E)
Time: 11:29:38
(UTC+00:00)
Language:

Transit 4A - Orbit

View from above orbital plane
View from above orbital plane
View from above satellite
View from above satellite

Ground track
Ground track

The orbit data is extracted from the following two-line orbital elements,

1   116U 61015A   21027.24706937 -.00000071  00000-0  49845-5 0  9995
2   116  66.8108  21.1142 0079379 216.3095 143.2584 13.91782052 23449
Epoch (UTC): 27 January 2021 05:55:46
Eccentricity: 0.0079379
inclination: 66.8108°
perigee height: 864 km
apogee height: 980 km
right ascension of ascending node: 21.1142°
argument of perigee: 216.3095°
revolutions per day: 13.91782052
mean anomaly at epoch: 143.2584°
orbit number at epoch: 2344

The dashed part of the orbit path shows where the satellite is in the earth's shadow,  

DLR